This demonstration page uses our WeatherBlox Daily Observations layout. Learn more.

38.88101, -77.10428

Hourly Observations for September 9, 2018

Temp ( °F °C ) Dew Point ( °F °C ) Humidity (%) Winds ( mph kmh ) Pressure ( in mb ) Visibility ( mi km ) Precip ( " mm )
12:02 am 00:02 Cloudy with Heavy Rain 63 17.2 59 15 87 87 N 13 20 30.09 1019 2 3.21868 0.08 2.032
12:26 am 00:26 Cloudy with Light Rain 64 17.8 60 15.6 87 87 N 10 17 30.09 1019 4 6.43736 0.16 4.064
12:52 am 00:52 Cloudy with Light Rain 63 17.2 60 15.6 90 90 NNE 14 22 30.08 1019 4 6.43736 0.22 5.588
1:34 am 01:34 Cloudy with Light Rain 63 17.2 59 15 87 87 NNE 12 19 30.09 1019 7 11.26538 0 0.0254
1:52 am 01:52 Cloudy with Light Rain 63 17.2 59 15 87 87 NNE 10 17 30.08 1019 7 11.26538 0 0.0254
2:20 am 02:20 Cloudy with Light Rain 63 17.2 59 15 87 87 NNE 14 22 30.09 1019 6 9.65604 0.01 0.254
2:52 am 02:52 Cloudy with Light Rain 62 16.7 58 14.4 86 86 NNE 14 22 30.08 1019 6 9.65604 0.01 0.254
3:52 am 03:52 Cloudy with Light Rain 62 16.7 58 14.4 86 86 NNE 16 26 30.07 1018 7 11.26538 0 0.0254
4:52 am 04:52 Cloudy with Light Rain 62 16.7 59 15 90 90 NE 15 24 30.05 1018 9 14.48406 0.02 0.508
5:06 am 05:06 Cloudy with Light Rain 62 16.7 59 15 90 90 NE 14 22 30.06 1018 10 16.0934 0.01 0.254
5:52 am 05:52 Cloudy with Light Rain 64 17.8 60 15.6 87 87 NNE 14 22 30.05 1018 7 11.26538 0.03 0.762
6:08 am 06:08 Cloudy with Light Rain 64 17.8 60 15.6 87 87 NE 16 26 30.06 1018 8 12.87472 0.01 0.254
6:52 am 06:52 Cloudy with Heavy Rain 63 17.2 60 15.6 90 90 NNE 9 15 30.08 1019 4 6.43736 0.07 1.778
6:57 am 06:57 Cloudy with Heavy Rain 63 17.2 59 15 87 87 NNE 10 17 30.06 1018 2 3.21868 0.04 1.016
7:00 am 07:00 Cloudy with Heavy Rain 63 17.2 60 15.6 90 90 NNE 15 24 30.06 1018 1.5 2.41401 0.08 2.032
7:06 am 07:06 Cloudy with Heavy Rain 63 17.2 60 15.6 90 90 NNE 15 24 30.06 1018 2 3.21868 0.16 4.064
7:14 am 07:14 Cloudy with Heavy Rain 63 17.2 60 15.6 90 90 NNE 16 26 30.06 1018 2 3.21868 0.26 6.604
7:20 am 07:20 Cloudy with Heavy Rain 63 17.2 60 15.6 90 90 NNE 15 24 30.06 1018 3 4.82802 0.3 7.62
7:23 am 07:23 Cloudy with Heavy Rain 63 17.2 60 15.6 90 90 NNE 15 24 30.06 1018 4 6.43736 0.31 7.874
7:28 am 07:28 Cloudy with Heavy Rain 63 17.2 60 15.6 90 90 NNE 14 22 30.06 1018 2.5 4.02335 0.34 8.636
7:31 am 07:31 Cloudy with Heavy Rain 63 17.2 60 15.6 90 90 NNE 16 26 30.06 1018 1.75 2.816345 0.38 9.652
7:39 am 07:39 Cloudy with Heavy Rain 63 17.2 60 15.6 90 90 NNE 15 24 30.06 1018 2 3.21868 0.43 10.922
7:44 am 07:44 Cloudy with Heavy Rain 63 17.2 60 15.6 90 90 NNE 10 17 30.09 1019 3 4.82802 0.46 11.684
7:47 am 07:47 Cloudy with Heavy Rain 63 17 61 16 94 94 NE 13 20 30.09 1019 2.5 4.02335 0.48 12.192
7:52 am 07:52 Cloudy with Heavy Rain 63 17.2 60 15.6 90 90 NE 14 22 30.07 1018 1.5 2.41401 0.54 13.716
8:00 am 08:00 Cloudy with Heavy Rain 63 17.2 60 15.6 90 90 NNE 14 22 30.09 1019 1.75 2.816345 0.07 1.778
8:06 am 08:06 Cloudy with Heavy Rain 63 17.2 60 15.6 90 90 NNE 14 22 30.09 1019 1.5 2.41401 0.11 2.794
8:10 am 08:10 Cloudy with Heavy Rain 63 17.2 60 15.6 90 90 NNE 16 26 30.09 1019 1.5 2.41401 0.16 4.064
8:15 am 08:15 Cloudy with Heavy Rain 63 17.2 60 15.6 90 90 NE 17 28 30.09 1019 1.75 2.816345 0.2 5.08
8:20 am 08:20 Cloudy with Rain 64 17.8 60 15.6 87 87 NE 17 28 30.06 1018 3 4.82802 0.22 5.588
8:34 am 08:34 Cloudy with Rain 64 17.8 61 16.1 90 90 NE 17 28 30.06 1018 5 8.0467 0.23 5.842
8:52 am 08:52 Cloudy with Rain 64 17.8 61 16.1 90 90 NE 15 24 30.06 1018 3 4.82802 0.28 7.112
8:57 am 08:57 Cloudy with Light Rain 64 17.8 61 16.1 90 90 NNE 13 20 30.06 1018 4 6.43736 0.01 0.254
9:03 am 09:03 Cloudy with Light Rain 63 17.2 60 15.6 90 90 NE 16 26 30.06 1018 6 9.65604 0.01 0.254
9:08 am 09:08 Cloudy with Light Rain 63 17.2 60 15.6 90 90 N 15 24 30.06 1018 8 12.87472 0.02 0.508
9:13 am 09:13 Cloudy with Light Rain 63 17.2 60 15.6 90 90 NNE 13 20 30.06 1018 9 14.48406 0.02 0.508
9:22 am 09:22 Cloudy with Light Rain 63 17.2 60 15.6 90 90 NE 15 24 30.06 1018 10 16.0934 0.03 0.762
9:45 am 09:45 Cloudy with Light Rain 63 17.2 60 15.6 90 90 NE 13 20 30.06 1018 10 16.0934 0.03 0.762
9:52 am 09:52 Cloudy with Light Rain 64 17.8 60 15.6 87 87 NE 17 28 30.07 1018 10 16.0934 0.03 0.762
10:33 am 10:33 Cloudy with Rain 65 18.3 61 16.1 87 87 ENE 18 30 30.06 1018 5 8.0467 0.03 0.762
10:37 am 10:37 Cloudy with Rain 65 18.3 61 16.1 87 87 ENE 20 31 30.06 1018 4 6.43736 0.04 1.016
10:52 am 10:52 Cloudy with Rain 65 18.3 61 16.1 87 87 ENE 17 28 30.06 1018 4 6.43736 0.08 2.032
11:52 am 11:52 Cloudy with Light Rain 65 18.3 61 16.1 87 87 NE 15 24 30.05 1018 7 11.26538 0.05 1.27
12:52 pm 12:52 Cloudy with Light Rain 66 18.9 62 16.7 87 87 ENE 17 28 30.03 1017 7 11.26538 0.05 1.27
1:52 pm 13:52 Cloudy with Light Rain 67 19.4 63 17.2 87 87 NNE 10 17 30.05 1018 10 16.0934 0.02 0.508
2:23 pm 14:23 Cloudy with Rain 67 19.4 63 17.2 87 87 NE 15 24 30.06 1018 4 6.43736 0.02 0.508
2:28 pm 14:28 Cloudy with Heavy Rain 67 19.4 63 17.2 87 87 NE 14 22 30.06 1018 2.5 4.02335 0.04 1.016
2:31 pm 14:31 Cloudy with Heavy Rain 67 19.4 63 17.2 87 87 ENE 13 20 30.06 1018 1.75 2.816345 0.07 1.778
2:52 pm 14:52 Cloudy with Rain 67 19.4 63 17.2 87 87 NNE 15 24 30.04 1017 2 3.21868 0.19 4.826
3:12 pm 15:12 Cloudy with Light Rain 67 19.4 63 17.2 87 87 NE 15 24 30.03 1017 4 6.43736 0.03 0.762
3:23 pm 15:23 Cloudy with Light Rain 67 19.4 64 17.8 91 91 NE 14 22 30.03 1017 7 11.26538 0.04 1.016
3:31 pm 15:31 Cloudy with Rain 67 19.4 63 17.2 87 87 NE 13 20 30.03 1017 6 9.65604 0.04 1.016
3:44 pm 15:44 Cloudy with Heavy Rain 66 18.9 63 17.2 90 90 NNE 12 19 30.03 1017 2.5 4.02335 0.08 2.032
3:52 pm 15:52 Cloudy with Rain 67 19.4 63 17.2 87 87 ENE 15 24 30.04 1017 2 3.21868 0.11 2.794
4:02 pm 16:02 Cloudy with Heavy Rain 67 19.4 63 17.2 87 87 ENE 17 28 30.03 1017 1.25 2.011675 0.04 1.016
4:09 pm 16:09 Cloudy with Rain 67 19.4 63 17.2 87 87 ENE 14 22 30.03 1017 1.5 2.41401 0.09 2.286
4:14 pm 16:14 Cloudy with Light Rain 67 19.4 63 17.2 87 87 ENE 13 20 30.06 1018 4 6.43736 0.1 2.54
4:25 pm 16:25 Cloudy with Light Rain 67 19.4 63 17.2 87 87 ENE 12 19 30.03 1017 5 8.0467 0.11 2.794
4:32 pm 16:32 Cloudy with Light Rain 67 19.4 63 17.2 87 87 ENE 17 28 30.03 1017 10 16.0934 0.11 2.794
4:52 pm 16:52 Cloudy 67 19.4 62 16.7 84 84 ENE 16 26 30.02 1017 10 16.0934 0.11 2.794
5:13 pm 17:13 Cloudy 66 18.9 62 16.7 87 87 ENE 22 35 30.03 1017 10 16.0934 0 0
5:52 pm 17:52 Cloudy 66 18.9 61 16.1 84 84 NE 17 28 30.04 1017 10 16.0934 0 0
6:25 pm 18:25 Cloudy 66 18.9 60 15.6 81 81 ENE 21 33 30.03 1017 10 16.0934 0 0
6:52 pm 18:52 Cloudy 66 18.9 61 16.1 84 84 ENE 16 26 30.04 1017 10 16.0934 0 0
7:08 pm 19:08 Cloudy 65 18.3 60 15.6 84 84 ENE 20 31 30.03 1017 10 16.0934 0 0
7:52 pm 19:52 Cloudy 65 18.3 60 15.6 84 84 NE 22 35 30.05 1018 10 16.0934 0 0
8:52 pm 20:52 Cloudy 65 18.3 60 15.6 84 84 ENE 16 26 30.06 1018 10 16.0934 0 0
9:52 pm 21:52 Cloudy 65 18.3 60 15.6 84 84 ENE 17 28 30.08 1019 10 16.0934 0 0
10:23 pm 22:23 Cloudy 65 18.3 60 15.6 84 84 ENE 17 28 30.06 1018 10 16.0934 0 0
10:34 pm 22:34 Cloudy 65 18.3 60 15.6 84 84 NE 14 22 30.09 1019 10 16.0934 0 0
10:52 pm 22:52 Cloudy 65 18.3 60 15.6 84 84 ENE 17 28 30.09 1019 10 16.0934 0 0
11:52 pm 23:52 Cloudy 65 18.3 60 15.6 84 84 NE 14 22 30.1 1019 10 16.0934 0 0

Powered by AerisWeather